owner,sensor,date,latitude,longitude,vertical_datum,wind_speed,wind_to_direction,wind_speed_of_gust,qcFlag 
TABS,ioos:station:wmo:42047:1,2011-11-01T00:00:00Z,27.8966,-93.5973,4.0,6.255181852,76.40768404,8.65,'11111222,11111222,11111222' 
TABS,ioos:station:wmo:42047:1,2011-11-01T00:30:00Z,27.8966,-93.5973,4.0,5.593710754,73.37886104,7.28,'11111222,11111222,11111222' 
TABS,ioos:station:wmo:42047:1,2011-11-01T01:00:00Z,27.8966,-93.5973,4.0,5.656589078,77.85532943,7.08,'11111222,11111222,11111222' 
TABS,ioos:station:wmo:42047:1,2011-11-01T01:30:00Z,27.8966,-93.5973,4.0,5.72796648,79.94526699,7.16,'11111222,11111222,11111222' 
TABS,ioos:station:wmo:42047:1,2011-11-01T02:00:00Z,27.8966,-93.5973,4.0,5.354344031,95.4661035,6.6,'11111222,11111222,11111222' 
TABS,ioos:station:wmo:42047:1,2011-11-01T02:30:00Z,27.8966,-93.5973,4.0,5.11277811,82.58268271,6.32,'11111222,11111222,11111222' 
TABS,ioos:station:wmo:42047:1,2011-11-01T03:00:00Z,27.8966,-93.5973,4.0,5.160348825,89.33338067,6.01,'11111222,11111222,11111222' 
TABS,ioos:station:wmo:42047:1,2011-11-01T03:30:00Z,27.8966,-93.5973,4.0,5.304158746,87.73056118,6.79,'11111222,11111222,11111222' 
TABS,ioos:station:wmo:42047:1,2011-11-01T04:00:00Z,27.8966,-93.5973,4.0,5.334960169,98.95069342,6.78,'11111222,11111222,11111222' 
TABS,ioos:station:wmo:42047:1,2011-11-01T04:30:00Z,27.8966,-93.5973,4.0,4.996158524,96.89783235,6.3,'11111222,11111222,11111222' 
TABS,ioos:station:wmo:42047:1,2011-11-01T05:00:00Z,27.8966,-93.5973,4.0,5.163303206,98.24035609,6.46,'11111222,11111222,11111222' 
TABS,ioos:station:wmo:42047:1,2011-11-01T05:30:00Z,27.8966,-93.5973,4.0,4.936233382,94.64838074,6.79,'11111222,11111222,11111222' 
TABS,ioos:station:wmo:42047:1,2011-11-01T06:00:00Z,27.8966,-93.5973,4.0,4.3833891,101.8486594,6.06,'11111222,11111222,11111222' 
TABS,ioos:station:wmo:42047:1,2011-11-01T06:30:00Z,27.8966,-93.5973,4.0,4.63341127,107.4576801,5.97,'11111222,11111222,11111222' 
TABS,ioos:station:wmo:42047:1,2011-11-01T07:00:00Z,27.8966,-93.5973,4.0,4.501655251,98.68850264,5.8,'11111222,11111222,11111222' 
TABS,ioos:station:wmo:42047:1,2011-11-01T07:30:00Z,27.8966,-93.5973,4.0,5.040991966,88.86290986,6.25,'11111222,11111222,11111222' 
TABS,ioos:station:wmo:42047:1,2011-11-01T08:00:00Z,27.8966,-93.5973,4.0,4.157523301,93.44779971,5.34,'11111222,11111222,11111222' 
TABS,ioos:station:wmo:42047:1,2011-11-01T08:30:00Z,27.8966,-93.5973,4.0,5.036913738,95.92605644,6.75,'11111222,11111222,11111222' 
TABS,ioos:station:wmo:42047:1,2011-11-01T09:00:00Z,27.8966,-93.5973,4.0,5.0136015,92.17226886,6.1,'11111222,11111222,11111222' 
TABS,ioos:station:wmo:42047:1,2011-11-01T09:30:00Z,27.8966,-93.5973,4.0,4.977750496,107.7801318,6.36,'11111222,11111222,11111222' 
TABS,ioos:station:wmo:42047:1,2011-11-01T10:00:00Z,27.8966,-93.5973,4.0,4.600456499,106.5445477,6.24,'11111222,11111222,11111222' 
TABS,ioos:station:wmo:42047:1,2011-11-01T10:30:00Z,27.8966,-93.5973,4.0,4.934338861,97.68712462,6.56,'11111222,11111222,11111222' 
TABS,ioos:station:wmo:42047:1,2011-11-01T11:00:00Z,27.8966,-93.5973,4.0,5.067001085,100.001827,6.94,'11111222,11111222,11111222' 
TABS,ioos:station:wmo:42047:1,2011-11-01T11:30:00Z,27.8966,-93.5973,4.0,5.223830013,92.19458314,6.1,'11111222,11111222,11111222' 
TABS,ioos:station:wmo:42047:1,2011-11-01T12:00:00Z,27.8966,-93.5973,4.0,5.166788171,105.0318079,6.35,'11111222,11111222,11111222' 
TABS,ioos:station:wmo:42047:1,2011-11-01T12:30:00Z,27.8966,-93.5973,4.0,5.793461832,100.8448343,7.06,'11111222,11111222,11111222' 
TABS,ioos:station:wmo:42047:1,2011-11-01T13:00:00Z,27.8966,-93.5973,4.0,6.538937223,114.2920333,7.75,'11111222,11111222,11111222' 
TABS,ioos:station:wmo:42047:1,2011-11-01T13:30:00Z,27.8966,-93.5973,4.0,6.637785775,118.9208147,8.57,'11111222,11111222,11111222' 
TABS,ioos:station:wmo:42047:1,2011-11-01T14:00:00Z,27.8966,-93.5973,4.0,6.88396688,112.2809064,8.2,'11111222,11111222,11111222' 
TABS,ioos:station:wmo:42047:1,2011-11-01T14:30:00Z,27.8966,-93.5973,4.0,6.795947322,108.8885633,8.56,'11111222,11111222,11111222' 
TABS,ioos:station:wmo:42047:1,2011-11-01T15:00:00Z,27.8966,-93.5973,4.0,6.695408875,113.5023437,8.28,'11111222,11111222,11111222' 
TABS,ioos:station:wmo:42047:1,2011-11-01T15:30:00Z,27.8966,-93.5973,4.0,6.453007051,125.8579844,7.73,'11111222,11111222,11111222' 
TABS,ioos:station:wmo:42047:1,2011-11-01T16:00:00Z,27.8966,-93.5973,4.0,6.822352967,118.0679021,8.37,'11111222,11111222,11111222' 
TABS,ioos:station:wmo:42047:1,2011-11-01T16:30:00Z,27.8966,-93.5973,4.0,6.53176852,114.9960588,7.79,'11111222,11111222,11111222' 
TABS,ioos:station:wmo:42047:1,2011-11-01T17:00:00Z,27.8966,-93.5973,4.0,6.299214237,113.8797364,7.99,'11111222,11111222,11111222' 
TABS,ioos:station:wmo:42047:1,2011-11-01T17:30:00Z,27.8966,-93.5973,4.0,6.116772025,104.1956595,7.31,'11111222,11111222,11111222' 
TABS,ioos:station:wmo:42047:1,2011-11-01T18:00:00Z,27.8966,-93.5973,4.0,5.970343374,116.3508205,7.19,'11111222,11111222,11111222' 
TABS,ioos:station:wmo:42047:1,2011-11-01T18:30:00Z,27.8966,-93.5973,4.0,6.122589322,116.0631966,7.34,'11111222,11111222,11111222' 
TABS,ioos:station:wmo:42047:1,2011-11-01T19:00:00Z,27.8966,-93.5973,4.0,5.512023222,114.8916628,6.51,'11111222,11111222,11111222' 
TABS,ioos:station:wmo:42047:1,2011-11-01T19:30:00Z,27.8966,-93.5973,4.0,4.936324544,108.5454398,6.11,'11111222,11111222,11111222' 
TABS,ioos:station:wmo:42047:1,2011-11-01T20:00:00Z,27.8966,-93.5973,4.0,4.847844882,110.5287524,6.12,'11111222,11111222,11111222' 
TABS,ioos:station:wmo:42047:1,2011-11-01T20:30:00Z,27.8966,-93.5973,4.0,5.136000389,106.282899,5.91,'11111222,11111222,11111222' 
TABS,ioos:station:wmo:42047:1,2011-11-01T21:00:00Z,27.8966,-93.5973,4.0,5.111878324,119.0222976,7.26,'11111222,11111222,11111222' 
TABS,ioos:station:wmo:42047:1,2011-11-01T21:30:00Z,27.8966,-93.5973,4.0,6.037565735,118.8153049,7.3,'11111222,11111222,11111222' 
TABS,ioos:station:wmo:42047:1,2011-11-01T22:00:00Z,27.8966,-93.5973,4.0,5.666339206,116.9723967,6.65,'11111222,11111222,11111222' 
TABS,ioos:station:wmo:42047:1,2011-11-01T22:30:00Z,27.8966,-93.5973,4.0,5.698648963,108.9440426,6.43,'11111222,11111222,11111222' 
TABS,ioos:station:wmo:42047:1,2011-11-01T23:00:00Z,27.8966,-93.5973,4.0,6.053668309,111.8193548,7.41,'11111222,11111222,11111222' 
TABS,ioos:station:wmo:42047:1,2011-11-01T23:30:00Z,27.8966,-93.5973,4.0,6.180008091,106.3532989,7.62,'11111222,11111222,11111222' 
TABS,ioos:station:wmo:42047:1,2011-11-02T00:00:00Z,27.8966,-93.5973,4.0,6.182661239,104.7109313,7.41,'11111222,11111222,11111222' 
TABS,ioos:station:wmo:42047:1,2011-11-02T00:30:00Z,27.8966,-93.5973,4.0,6.616721242,111.1746559,8.42,'11111222,11111222,11111222' 
TABS,ioos:station:wmo:42047:1,2011-11-02T01:00:00Z,27.8966,-93.5973,4.0,6.955990224,120.8793482,7.92,'11111222,11111222,11111222' 
TABS,ioos:station:wmo:42047:1,2011-11-02T01:30:00Z,27.8966,-93.5973,4.0,7.374076213,119.3115481,9.03,'11111222,11111222,11111222' 
TABS,ioos:station:wmo:42047:1,2011-11-02T02:00:00Z,27.8966,-93.5973,4.0,6.718630813,122.602349,8.24,'11111222,11111222,11111222' 
TABS,ioos:station:wmo:42047:1,2011-11-02T02:30:00Z,27.8966,-93.5973,4.0,8.124413825,127.4485292,9.42,'11111222,11111222,11111222' 
TABS,ioos:station:wmo:42047:1,2011-11-02T03:00:00Z,27.8966,-93.5973,4.0,7.044125212,127.2118548,7.98,'11111222,11111222,11111222' 
TABS,ioos:station:wmo:42047:1,2011-11-02T03:30:00Z,27.8966,-93.5973,4.0,7.420006739,136.4747113,9.03,'11111222,11111222,11111222' 
TABS,ioos:station:wmo:42047:1,2011-11-02T04:00:00Z,27.8966,-93.5973,4.0,8.481420872,133.4237693,9.95,'11111222,11111222,11111222' 
TABS,ioos:station:wmo:42047:1,2011-11-02T04:30:00Z,27.8966,-93.5973,4.0,8.100895012,129.8421219,9.4,'11111222,11111222,11111222' 
TABS,ioos:station:wmo:42047:1,2011-11-02T05:00:00Z,27.8966,-93.5973,4.0,7.368480169,132.4152361,8.15,'11111222,11111222,11111222' 
TABS,ioos:station:wmo:42047:1,2011-11-02T05:30:00Z,27.8966,-93.5973,4.0,7.33270073,134.9450644,8.9,'11111222,11111222,11111222' 
TABS,ioos:station:wmo:42047:1,2011-11-02T06:00:00Z,27.8966,-93.5973,4.0,6.901630242,137.6428548,8.71,'11111222,11111222,11111222' 
TABS,ioos:station:wmo:42047:1,2011-11-02T06:30:00Z,27.8966,-93.5973,4.0,7.159064185,133.3023254,8.53,'11111222,11111222,11111222' 
TABS,ioos:station:wmo:42047:1,2011-11-02T07:00:00Z,27.8966,-93.5973,4.0,7.83663831,132.2592568,9.05,'11111222,11111222,11111222' 
TABS,ioos:station:wmo:42047:1,2011-11-02T07:30:00Z,27.8966,-93.5973,4.0,7.797647081,151.9234669,9.15,'11111222,11111222,11111222' 
TABS,ioos:station:wmo:42047:1,2011-11-02T08:00:00Z,27.8966,-93.5973,4.0,7.606161976,150.8066607,8.47,'11111222,11111222,11111222' 
TABS,ioos:station:wmo:42047:1,2011-11-02T08:30:00Z,27.8966,-93.5973,4.0,7.949748424,147.1697918,9.24,'11111222,11111222,11111222' 
TABS,ioos:station:wmo:42047:1,2011-11-02T09:00:00Z,27.8966,-93.5973,4.0,6.829128788,149.2667437,7.79,'11111222,11111222,11111222' 
TABS,ioos:station:wmo:42047:1,2011-11-02T09:30:00Z,27.8966,-93.5973,4.0,6.642687709,140.5591755,7.47,'11111222,11111222,11111222' 
TABS,ioos:station:wmo:42047:1,2011-11-02T10:00:00Z,27.8966,-93.5973,4.0,6.289451486,152.1314204,7.15,'11111222,11111222,11111222' 
TABS,ioos:station:wmo:42047:1,2011-11-02T10:30:00Z,27.8966,-93.5973,4.0,6.521748232,157.8399432,7.36,'11111222,11111222,11111222' 
TABS,ioos:station:wmo:42047:1,2011-11-02T11:00:00Z,27.8966,-93.5973,4.0,6.662326921,155.2431472,7.71,'11111222,11111222,11111222' 
TABS,ioos:station:wmo:42047:1,2011-11-02T11:30:00Z,27.8966,-93.5973,4.0,7.009172562,149.1907349,8.07,'11111222,11111222,11111222' 
TABS,ioos:station:wmo:42047:1,2011-11-02T12:00:00Z,27.8966,-93.5973,4.0,6.166441437,147.3153054,7.14,'11111222,11111222,11111222' 
TABS,ioos:station:wmo:42047:1,2011-11-02T12:30:00Z,27.8966,-93.5973,4.0,7.018333135,152.2303281,7.76,'11111222,11111222,11111222' 
TABS,ioos:station:wmo:42047:1,2011-11-02T13:00:00Z,27.8966,-93.5973,4.0,7.043876773,157.5493378,8.66,'11111222,11111222,11111222' 
TABS,ioos:station:wmo:42047:1,2011-11-02T13:30:00Z,27.8966,-93.5973,4.0,7.858784893,151.2501718,8.93,'11111222,11111222,11111222' 
TABS,ioos:station:wmo:42047:1,2011-11-02T14:00:00Z,27.8966,-93.5973,4.0,6.546632722,150.537641,7.32,'11111222,11111222,11111222' 
TABS,ioos:station:wmo:42047:1,2011-11-02T14:30:00Z,27.8966,-93.5973,4.0,5.942162906,143.5546606,7.1,'11111222,11111222,11111222' 
TABS,ioos:station:wmo:42047:1,2011-11-02T15:00:00Z,27.8966,-93.5973,4.0,6.859810493,147.2600423,8.28,'11111222,11111222,11111222' 
TABS,ioos:station:wmo:42047:1,2011-11-02T15:30:00Z,27.8966,-93.5973,4.0,6.425262641,140.811282,7.19,'11111222,11111222,11111222' 
TABS,ioos:station:wmo:42047:1,2011-11-02T16:00:00Z,27.8966,-93.5973,4.0,6.905186457,144.1925373,7.52,'11111222,11111222,11111222' 
TABS,ioos:station:wmo:42047:1,2011-11-02T16:30:00Z,27.8966,-93.5973,4.0,6.196039057,143.3338366,7.26,'11111222,11111222,11111222' 
TABS,ioos:station:wmo:42047:1,2011-11-02T17:00:00Z,27.8966,-93.5973,4.0,6.346313891,139.2815015,7.07,'11111222,11111222,11111222' 
TABS,ioos:station:wmo:42047:1,2011-11-02T17:30:00Z,27.8966,-93.5973,4.0,5.894005429,139.4728181,6.54,'11111222,11111222,11111222' 
TABS,ioos:station:wmo:42047:1,2011-11-02T18:00:00Z,27.8966,-93.5973,4.0,5.997366089,141.9074623,6.85,'11111222,11111222,11111222' 
TABS,ioos:station:wmo:42047:1,2011-11-02T18:30:00Z,27.8966,-93.5973,4.0,5.275319896,125.5885186,5.94,'11111222,11111222,11111222' 
TABS,ioos:station:wmo:42047:1,2011-11-02T19:00:00Z,27.8966,-93.5973,4.0,5.197662936,139.2914022,6.24,'11111222,11111222,11111222' 
TABS,ioos:station:wmo:42047:1,2011-11-02T19:30:00Z,27.8966,-93.5973,4.0,6.071515462,140.2793105,7.05,'11111222,11111222,11111222' 
TABS,ioos:station:wmo:42047:1,2011-11-02T20:00:00Z,27.8966,-93.5973,4.0,6.541781103,138.9050131,7.42,'11111222,11111222,11111222' 
TABS,ioos:station:wmo:42047:1,2011-11-02T20:30:00Z,27.8966,-93.5973,4.0,6.293504588,135.5153189,7.19,'11111222,11111222,11111222' 
TABS,ioos:station:wmo:42047:1,2011-11-02T21:00:00Z,27.8966,-93.5973,4.0,5.794523276,147.1878269,6.51,'11111222,11111222,11111222' 
TABS,ioos:station:wmo:42047:1,2011-11-02T21:30:00Z,27.8966,-93.5973,4.0,5.433985646,150.0853825,6.11,'11111222,11111222,11111222' 
TABS,ioos:station:wmo:42047:1,2011-11-02T22:00:00Z,27.8966,-93.5973,4.0,6.063876648,157.1986927,6.95,'11111222,11111222,11111222' 
TABS,ioos:station:wmo:42047:1,2011-11-02T22:30:00Z,27.8966,-93.5973,4.0,6.447363802,158.0503325,7.98,'11111222,11111222,11111222' 
TABS,ioos:station:wmo:42047:1,2011-11-02T23:00:00Z,27.8966,-93.5973,4.0,8.67747083,177.6225184,10.55,'11111222,11111222,11111222' 
TABS,ioos:station:wmo:42047:1,2011-11-02T23:30:00Z,27.8966,-93.5973,4.0,5.836197392,189.2688359,7.29,'11111222,11111222,11111222' 
TABS,ioos:station:wmo:42047:1,2011-11-03T00:00:00Z,27.8966,-93.5973,4.0,3.964605907,184.9198614,4.95,'11111222,11111222,11111222' 
TABS,ioos:station:wmo:42047:1,2011-11-03T00:30:00Z,27.8966,-93.5973,4.0,6.48081785,172.8203824,7.72,'11111222,11111222,11111222' 
TABS,ioos:station:wmo:42047:1,2011-11-03T01:00:00Z,27.8966,-93.5973,4.0,6.765330738,158.8593819,7.78,'11111222,11111222,11111222' 
TABS,ioos:station:wmo:42047:1,2011-11-03T01:30:00Z,27.8966,-93.5973,4.0,8.75128562,147.1273784,9.82,'11111222,11111222,11111222' 
TABS,ioos:station:wmo:42047:1,2011-11-03T02:00:00Z,27.8966,-93.5973,4.0,8.156273659,144.9852525,9.27,'11111222,11111222,11111222' 
TABS,ioos:station:wmo:42047:1,2011-11-03T02:30:00Z,27.8966,-93.5973,4.0,8.886506625,145.9168121,10.06,'11111222,11111222,11111222' 
TABS,ioos:station:wmo:42047:1,2011-11-03T03:00:00Z,27.8966,-93.5973,4.0,9.017427571,148.8839708,10.24,'11111222,11111222,11111222' 
TABS,ioos:station:wmo:42047:1,2011-11-03T03:30:00Z,27.8966,-93.5973,4.0,8.081862409,152.6742836,9.4,'11111222,11111222,11111222' 
TABS,ioos:station:wmo:42047:1,2011-11-03T04:00:00Z,27.8966,-93.5973,4.0,7.892401409,157.6596147,8.91,'11111222,11111222,11111222' 
TABS,ioos:station:wmo:42047:1,2011-11-03T04:30:00Z,27.8966,-93.5973,4.0,7.035637853,159.9684476,8.11,'11111222,11111222,11111222' 
TABS,ioos:station:wmo:42047:1,2011-11-03T05:00:00Z,27.8966,-93.5973,4.0,7.44613994,167.5131623,8.98,'11111222,11111222,11111222' 
TABS,ioos:station:wmo:42047:1,2011-11-03T05:30:00Z,27.8966,-93.5973,4.0,6.973815312,164.1902756,7.89,'11111222,11111222,11111222' 
TABS,ioos:station:wmo:42047:1,2011-11-03T06:00:00Z,27.8966,-93.5973,4.0,5.859530698,171.1648579,6.73,'11111222,11111222,11111222' 
TABS,ioos:station:wmo:42047:1,2011-11-03T06:30:00Z,27.8966,-93.5973,4.0,6.562872847,158.8311212,7.95,'11111222,11111222,11111222' 
TABS,ioos:station:wmo:42047:1,2011-11-03T07:00:00Z,27.8966,-93.5973,4.0,6.774813651,163.6250264,7.53,'11111222,11111222,11111222' 
TABS,ioos:station:wmo:42047:1,2011-11-03T07:30:00Z,27.8966,-93.5973,4.0,6.252239599,171.9090068,7.27,'11111222,11111222,11111222' 
TABS,ioos:station:wmo:42047:1,2011-11-03T08:00:00Z,27.8966,-93.5973,4.0,4.797103293,169.0650866,5.73,'11111222,11111222,11111222' 
TABS,ioos:station:wmo:42047:1,2011-11-03T08:30:00Z,27.8966,-93.5973,4.0,3.335206141,163.6300978,3.79,'11111222,11111222,11111222' 
TABS,ioos:station:wmo:42047:1,2011-11-03T09:00:00Z,27.8966,-93.5973,4.0,5.904743856,205.2632499,6.64,'11111222,11111222,11111222' 
TABS,ioos:station:wmo:42047:1,2011-11-03T09:30:00Z,27.8966,-93.5973,4.0,5.679876759,197.7333115,6.62,'11111222,11111222,11111222' 
TABS,ioos:station:wmo:42047:1,2011-11-03T10:00:00Z,27.8966,-93.5973,4.0,5.273708373,192.9296512,5.97,'11111222,11111222,11111222' 
TABS,ioos:station:wmo:42047:1,2011-11-03T10:30:00Z,27.8966,-93.5973,4.0,5.86054605,195.0323544,6.87,'11111222,11111222,11111222' 
TABS,ioos:station:wmo:42047:1,2011-11-03T11:00:00Z,27.8966,-93.5973,4.0,5.435485259,202.2713553,6.21,'11111222,11111222,11111222' 
TABS,ioos:station:wmo:42047:1,2011-11-03T11:30:00Z,27.8966,-93.5973,4.0,4.536353161,273.0326955,11.86,'11111222,11111222,11111222' 
TABS,ioos:station:wmo:42047:1,2011-11-03T12:00:00Z,27.8966,-93.5973,4.0,13.38468154,325.1937159,15.06,'11111222,11111222,11111222' 
TABS,ioos:station:wmo:42047:1,2011-11-03T12:30:00Z,27.8966,-93.5973,4.0,13.96684646,329.0642467,15.94,'11111222,11111222,11111222' 
TABS,ioos:station:wmo:42047:1,2011-11-03T13:00:00Z,27.8966,-93.5973,4.0,13.17212587,336.1786853,15.33,'11111222,11111222,11111222' 
TABS,ioos:station:wmo:42047:1,2011-11-03T13:30:00Z,27.8966,-93.5973,4.0,12.15806317,354.9035036,13.42,'11111222,11111222,11111222' 
TABS,ioos:station:wmo:42047:1,2011-11-03T14:00:00Z,27.8966,-93.5973,4.0,12.34498279,350.911367,14.11,'11111222,11111222,11111222' 
TABS,ioos:station:wmo:42047:1,2011-11-03T14:30:00Z,27.8966,-93.5973,4.0,12.19529417,350.8464411,13.8,'11111222,11111222,11111222' 
TABS,ioos:station:wmo:42047:1,2011-11-03T15:00:00Z,27.8966,-93.5973,4.0,11.57864413,352.9054785,12.95,'11111222,11111222,11111222' 
TABS,ioos:station:wmo:42047:1,2011-11-03T15:30:00Z,27.8966,-93.5973,4.0,11.63505479,352.2945233,14.08,'11111222,11111222,11111222' 
TABS,ioos:station:wmo:42047:1,2011-11-03T16:00:00Z,27.8966,-93.5973,4.0,11.53048568,353.2261034,13.58,'11111222,11111222,11111222' 
TABS,ioos:station:wmo:42047:1,2011-11-03T16:30:00Z,27.8966,-93.5973,4.0,10.65369419,357.0944206,12.5,'11111222,11111222,11111222' 
TABS,ioos:station:wmo:42047:1,2011-11-03T17:00:00Z,27.8966,-93.5973,4.0,11.78504561,352.3441223,13.93,'11111222,11111222,11111222' 
TABS,ioos:station:wmo:42047:1,2011-11-03T17:30:00Z,27.8966,-93.5973,4.0,11.58213279,357.377017,13.34,'11111222,11111222,11111222' 
TABS,ioos:station:wmo:42047:1,2011-11-03T18:00:00Z,27.8966,-93.5973,4.0,10.40508049,356.9146552,12.52,'11111222,11111222,11111222' 
TABS,ioos:station:wmo:42047:1,2011-11-03T18:30:00Z,27.8966,-93.5973,4.0,10.05645067,350.2096612,11.57,'11111222,11111222,11111222' 
TABS,ioos:station:wmo:42047:1,2011-11-03T19:00:00Z,27.8966,-93.5973,4.0,9.792512446,349.2292017,12.01,'11111222,11111222,11111222' 
TABS,ioos:station:wmo:42047:1,2011-11-03T19:30:00Z,27.8966,-93.5973,4.0,10.05310897,352.6273703,11.79,'11111222,11111222,11111222' 
TABS,ioos:station:wmo:42047:1,2011-11-03T20:00:00Z,27.8966,-93.5973,4.0,10.0826435,350.3506463,11.83,'11111222,11111222,11111222' 
TABS,ioos:station:wmo:42047:1,2011-11-03T20:30:00Z,27.8966,-93.5973,4.0,9.654449751,349.737432,11.59,'11111222,11111222,11111222' 
TABS,ioos:station:wmo:42047:1,2011-11-03T21:00:00Z,27.8966,-93.5973,4.0,9.594884053,340.9606015,11.66,'11111222,11111222,11111222' 
TABS,ioos:station:wmo:42047:1,2011-11-03T21:30:00Z,27.8966,-93.5973,4.0,10.01872247,339.4304056,12.37,'11111222,11111222,11111222' 
TABS,ioos:station:wmo:42047:1,2011-11-03T22:00:00Z,27.8966,-93.5973,4.0,9.566948312,340.7126148,12.65,'11111222,11111222,11111222' 
TABS,ioos:station:wmo:42047:1,2011-11-03T22:30:00Z,27.8966,-93.5973,4.0,9.701133954,328.1447316,11.63,'11111222,11111222,11111222' 
TABS,ioos:station:wmo:42047:1,2011-11-03T23:00:00Z,27.8966,-93.5973,4.0,9.771719398,335.9004284,11.3,'11111222,11111222,11111222' 
TABS,ioos:station:wmo:42047:1,2011-11-03T23:30:00Z,27.8966,-93.5973,4.0,9.864126925,332.0059537,11.72,'11111222,11111222,11111222' 
TABS,ioos:station:wmo:42047:1,2011-11-04T00:00:00Z,27.8966,-93.5973,4.0,9.493560976,338.9493286,11.96,'11111222,11111222,11111222' 
TABS,ioos:station:wmo:42047:1,2011-11-04T00:30:00Z,27.8966,-93.5973,4.0,10.1024205,338.8198117,12.63,'11111222,11111222,11111222' 
TABS,ioos:station:wmo:42047:1,2011-11-04T01:00:00Z,27.8966,-93.5973,4.0,10.18258317,341.74282,12.59,'11111222,11111222,11111222' 
TABS,ioos:station:wmo:42047:1,2011-11-04T01:30:00Z,27.8966,-93.5973,4.0,9.876401166,343.7117768,12.67,'11111222,11111222,11111222' 
TABS,ioos:station:wmo:42047:1,2011-11-04T02:00:00Z,27.8966,-93.5973,4.0,10.21595321,345.4874864,12.02,'11111222,11111222,11111222' 
TABS,ioos:station:wmo:42047:1,2011-11-04T02:30:00Z,27.8966,-93.5973,4.0,9.385249064,349.5639186,10.76,'11111222,11111222,11111222' 
TABS,ioos:station:wmo:42047:1,2011-11-04T03:00:00Z,27.8966,-93.5973,4.0,9.214580837,352.7051169,11.57,'11111222,11111222,11111222' 
TABS,ioos:station:wmo:42047:1,2011-11-04T03:30:00Z,27.8966,-93.5973,4.0,9.53438514,341.8499344,11.47,'11111222,11111222,11111222' 
TABS,ioos:station:wmo:42047:1,2011-11-04T04:00:00Z,27.8966,-93.5973,4.0,9.409149802,356.3436964,11.02,'11111222,11111222,11111222' 
TABS,ioos:station:wmo:42047:1,2011-11-04T04:30:00Z,27.8966,-93.5973,4.0,8.871690932,355.9924047,11.05,'11111222,11111222,11111222' 
TABS,ioos:station:wmo:42047:1,2011-11-04T05:00:00Z,27.8966,-93.5973,4.0,8.776810355,351.4819556,10.49,'11111222,11111222,11111222' 
TABS,ioos:station:wmo:42047:1,2011-11-04T05:30:00Z,27.8966,-93.5973,4.0,9.09215596,357.0366902,11.33,'11111222,11111222,11111222' 
TABS,ioos:station:wmo:42047:1,2011-11-04T06:00:00Z,27.8966,-93.5973,4.0,9.314010951,8.147272108,11.58,'11111222,11111222,11111222' 
TABS,ioos:station:wmo:42047:1,2011-11-04T06:30:00Z,27.8966,-93.5973,4.0,9.085400376,14.14306614,10.98,'11111222,11111222,11111222' 
TABS,ioos:station:wmo:42047:1,2011-11-04T07:00:00Z,27.8966,-93.5973,4.0,8.692295439,10.74089467,11.11,'11111222,11111222,11111222' 
TABS,ioos:station:wmo:42047:1,2011-11-04T07:30:00Z,27.8966,-93.5973,4.0,8.259691278,3.956898166,10.66,'11111222,11111222,11111222' 
TABS,ioos:station:wmo:42047:1,2011-11-04T08:00:00Z,27.8966,-93.5973,4.0,8.10295008,5.168599312,10.11,'11111222,11111222,11111222' 
TABS,ioos:station:wmo:42047:1,2011-11-04T08:30:00Z,27.8966,-93.5973,4.0,8.718268177,9.840237553,10.19,'11111222,11111222,11111222' 
TABS,ioos:station:wmo:42047:1,2011-11-04T09:00:00Z,27.8966,-93.5973,4.0,7.832815586,7.260883143,9.89,'11111222,11111222,11111222' 
TABS,ioos:station:wmo:42047:1,2011-11-04T09:30:00Z,27.8966,-93.5973,4.0,7.464181134,15.86079688,9.5,'11111222,11111222,11111222' 
TABS,ioos:station:wmo:42047:1,2011-11-04T10:00:00Z,27.8966,-93.5973,4.0,7.355576116,22.20615975,8.86,'11111222,11111222,11111222' 
TABS,ioos:station:wmo:42047:1,2011-11-04T10:30:00Z,27.8966,-93.5973,4.0,7.094406247,2.019250662,9.47,'11111222,11111222,11111222' 
TABS,ioos:station:wmo:42047:1,2011-11-04T11:00:00Z,27.8966,-93.5973,4.0,7.727515772,3.858243914,9.59,'11111222,11111222,11111222' 
TABS,ioos:station:wmo:42047:1,2011-11-04T11:30:00Z,27.8966,-93.5973,4.0,6.808178905,6.070451219,9.1,'11111222,11111222,11111222' 
TABS,ioos:station:wmo:42047:1,2011-11-04T12:00:00Z,27.8966,-93.5973,4.0,6.421970103,7.96584704,8.07,'11111222,11111222,11111222' 
TABS,ioos:station:wmo:42047:1,2011-11-04T12:30:00Z,27.8966,-93.5973,4.0,6.294203683,2.093927836,8.17,'11111222,11111222,11111222' 
TABS,ioos:station:wmo:42047:1,2011-11-04T13:00:00Z,27.8966,-93.5973,4.0,6.350661383,20.46075161,8.43,'11111222,11111222,11111222' 
TABS,ioos:station:wmo:42047:1,2011-11-04T13:30:00Z,27.8966,-93.5973,4.0,5.662552428,1.720166283,7.09,'11111222,11111222,11111222' 
TABS,ioos:station:wmo:42047:1,2011-11-04T14:00:00Z,27.8966,-93.5973,4.0,5.625699956,18.33807537,7.8,'11111222,11111222,11111222' 
TABS,ioos:station:wmo:42047:1,2011-11-04T14:30:00Z,27.8966,-93.5973,4.0,4.759464256,21.44347406,6.34,'11111222,11111222,11111222' 
TABS,ioos:station:wmo:42047:1,2011-11-04T15:00:00Z,27.8966,-93.5973,4.0,4.951171579,351.7551478,6.96,'11111222,11111222,11111222' 
TABS,ioos:station:wmo:42047:1,2011-11-04T15:30:00Z,27.8966,-93.5973,4.0,5.484569263,20.71473707,7.09,'11111222,11111222,11111222' 
TABS,ioos:station:wmo:42047:1,2011-11-04T16:00:00Z,27.8966,-93.5973,4.0,4.991192242,9.688553445,6.74,'11111222,11111222,11111222' 
TABS,ioos:station:wmo:42047:1,2011-11-04T16:30:00Z,27.8966,-93.5973,4.0,4.971357963,19.01783691,6.91,'11111222,11111222,11111222' 
TABS,ioos:station:wmo:42047:1,2011-11-04T17:00:00Z,27.8966,-93.5973,4.0,6.108559568,5.542374755,8.23,'11111222,11111222,11111222' 
TABS,ioos:station:wmo:42047:1,2011-11-04T17:30:00Z,27.8966,-93.5973,4.0,5.28531929,14.79849474,7.61,'11111222,11111222,11111222' 
TABS,ioos:station:wmo:42047:1,2011-11-04T18:00:00Z,27.8966,-93.5973,4.0,5.249780948,8.654656686,6.66,'11111222,11111222,11111222' 
TABS,ioos:station:wmo:42047:1,2011-11-04T18:30:00Z,27.8966,-93.5973,4.0,5.277650993,16.51182268,7.7,'11111222,11111222,11111222' 